User: anonymous   Login
Location: Castelbiague
(43.0361°N, 0.9246°E)
Time: 16:34:05
(UTC+00:00)
Language:

Cosmos 1727 Rocket - Orbit

View from above orbital plane
View from above orbital plane
View from above satellite
View from above satellite

Ground track
Ground track

The orbit data is extracted from the following two-line orbital elements,

1 16511U 86008B   21258.84280991  .00000006  00000-0 -88427-5 0  9996
2 16511  82.9457 149.2026 0022767 268.5282 161.7425 13.75792552789378
Epoch (UTC): 15 September 2021 20:13:38
Eccentricity: 0.0022767
inclination: 82.9457°
perigee height: 962 km
apogee height: 995 km
right ascension of ascending node: 149.2026°
argument of perigee: 268.5282°
revolutions per day: 13.75792552
mean anomaly at epoch: 161.7425°
orbit number at epoch: 78937

The dashed part of the orbit path shows where the satellite is in the earth's shadow,  

DLR